Location: Vihti�l�
(61.3833°N, 23.0667°E)
Time: 04:40:03
(UTC+00:00)

IDEFIX/ARIANE 42P - Pass Details

Date: 29 November 2020
Orbit: 786 x 802 km, 98.4° (Epoch: 19 January)

Event Time Altitude Azimuth Distance (km) Brightness Sun altitude
Rises 02:58:37 0° 18° (NNE) 3,296 6.1 -28.0°
Reaches altitude 10° 03:01:01 10° 12° (NNE) 2,363 5.2 -27.7°
Enters shadow 03:03:41 28° 355° (N) 1,450 3.9 -27.4°
